Погода в Пикове

Россия / Липецкая область     53°17′51″N   39°50′27″E
темп.,
°C
ветер,
м/с
пор.,
м/с
влажн.,
%
обл.,
%
осадки,
мм/ч
давл.,
гПа
погр.,
м
27 ноября, сб
сб2700:00−1ююз6147886 0.0 1016362
03:00−2ю5128132 0.0 1016293
06:00−2ю51287100 0.0 1015331
09:00−2ююв61489100 0.0 1014370
12:00+1ююв71786100 0.0 1012469
15:00+2ююв91884100 0.0 1009723
18:00+1ююв101997100 1.9 1007782
21:00+2ю81794100 2.9 1006609
28 ноября, вс
вс2800:00+2ю71494100 0.3 1006445
03:00+2ю61396100 0.4 1006337
06:00+2ю51298100 0.0 1006338
09:00+3ю41099100 0.0 1007257
12:00+4ююз4998100 0.1 1008226
15:00+4ююз36965 0.1 1009133
18:00+2юз34968 0.0 101158
21:00+2ююз349497 0.0 101246
29 ноября, пн
пн2900:00+3ю3492100 0.0 101249
03:00+4ююв3792100 0.0 1011114
06:00+3юв41097100 0.0 1010194
09:00+4юв51199100 0.3 1008254
12:00+7ююв81695100 2.3 1004801
15:00+7ююв81692100 3.7 1001630
18:00+7ююв81793100 1.0 997603
21:00+8ююв101993100 4.3 992945
30 ноября, вт
вт3000:00+10ю101991100 3.0 988986
03:00+11ююз11188769 5.8 984967
06:00+9ююз132078100 0.3 9841396
09:00+5юз121974100 0.3 9881206
12:00+3юз111865100 0.0 9891323
15:00+3юз10176769 0.0 9901241
18:00+2юз91572100 0.0 9911248
21:00+1юз9157356 0.1 9901043
1 декабря, ср
ср100:00+1юз9157423 0.0 990915
03:000юз7128398 0.0 991776
06:00−1зюз61187100 0.1 992773
09:00−1з61079100 0.1 994911
12:00−1з6867100 0.1 9961136
15:00−1з586361 0.1 9971206
18:00−2з5970100 0.0 9981022
21:00−1зюз587499 0.0 999754